Year,Month,Day,Hour,Minute,Value (Times are PST for temperature in C)
2017,07,13,11,06,14.70
2017,07,13,11,07,14.70
2017,07,13,11,08,14.70
2017,07,13,11,09,14.70
2017,07,13,11,10,14.80
2017,07,13,11,11,14.80
2017,07,13,11,12,14.90
2017,07,13,11,13,14.90
2017,07,13,11,14,14.90
2017,07,13,11,15,14.90
2017,07,13,11,16,15.00
2017,07,13,11,17,15.00
2017,07,13,11,18,15.10
2017,07,13,11,19,15.10
2017,07,13,11,20,15.10
2017,07,13,11,21,15.10
2017,07,13,11,22,15.00
2017,07,13,11,23,15.00
2017,07,13,11,24,15.00
2017,07,13,11,25,15.00
2017,07,13,11,26,15.00
2017,07,13,11,27,15.00
2017,07,13,11,28,15.00
2017,07,13,11,29,15.00
2017,07,13,11,30,15.10
2017,07,13,11,31,15.20
2017,07,13,11,32,15.20
2017,07,13,11,33,15.30
2017,07,13,11,34,15.30
2017,07,13,11,35,15.40
2017,07,13,11,36,15.40
2017,07,13,11,37,15.40
2017,07,13,11,38,15.40
2017,07,13,11,39,15.40
2017,07,13,11,40,15.40
2017,07,13,11,41,15.40
2017,07,13,11,42,15.40
2017,07,13,11,43,15.40
2017,07,13,11,44,15.50
2017,07,13,11,45,15.50
2017,07,13,11,46,15.50
2017,07,13,11,47,15.50
2017,07,13,11,48,15.50
2017,07,13,11,49,15.50
2017,07,13,11,50,15.50
2017,07,13,11,51,15.50
2017,07,13,11,52,15.50
2017,07,13,11,53,15.50
2017,07,13,11,54,15.60
2017,07,13,11,55,15.60
2017,07,13,11,56,15.60
2017,07,13,11,57,15.60
2017,07,13,11,58,15.60
2017,07,13,11,59,15.60
2017,07,13,12,00,15.70
2017,07,13,12,01,15.70
2017,07,13,12,02,15.70
2017,07,13,12,03,15.70
2017,07,13,12,04,15.70
2017,07,13,12,05,15.80
2017,07,13,12,06,15.80
2017,07,13,12,07,15.80
2017,07,13,12,08,15.80
2017,07,13,12,09,15.90
2017,07,13,12,10,15.90
2017,07,13,12,11,15.90
2017,07,13,12,12,15.90
2017,07,13,12,13,15.90
2017,07,13,12,14,15.90
2017,07,13,12,15,15.90
2017,07,13,12,16,15.90
2017,07,13,12,17,15.90
2017,07,13,12,18,16.00
2017,07,13,12,19,16.00
2017,07,13,12,20,16.10
2017,07,13,12,21,16.10
2017,07,13,12,22,16.00
2017,07,13,12,23,15.90
2017,07,13,12,24,15.90
2017,07,13,12,25,15.90
2017,07,13,12,26,15.80
2017,07,13,12,27,15.80
2017,07,13,12,28,15.80
2017,07,13,12,29,15.80
2017,07,13,12,30,15.80
2017,07,13,12,31,15.80
2017,07,13,12,32,15.80
2017,07,13,12,33,15.80
2017,07,13,12,34,15.80
2017,07,13,12,35,15.80
2017,07,13,12,36,15.90
2017,07,13,12,37,16.00
2017,07,13,12,38,16.10
2017,07,13,12,39,16.10
2017,07,13,12,40,16.20
2017,07,13,12,41,16.20
2017,07,13,12,42,16.10
2017,07,13,12,43,16.00
2017,07,13,12,44,15.90
2017,07,13,12,45,15.80
2017,07,13,12,46,15.70
2017,07,13,12,47,15.70
2017,07,13,12,48,15.60
2017,07,13,12,49,15.60
2017,07,13,12,50,15.60
2017,07,13,12,51,15.60
2017,07,13,12,52,15.60
2017,07,13,12,53,15.60
2017,07,13,12,54,15.70
2017,07,13,12,55,15.70
2017,07,13,12,56,15.70
2017,07,13,12,57,15.80
2017,07,13,12,58,15.80
2017,07,13,12,59,15.90
2017,07,13,13,00,15.90
2017,07,13,13,01,15.90
2017,07,13,13,02,15.90
2017,07,13,13,03,15.90
2017,07,13,13,04,15.90
2017,07,13,13,05,15.80
2017,07,13,13,06,15.80
2017,07,13,13,07,15.70
2017,07,13,13,08,15.70
2017,07,13,13,09,15.70
2017,07,13,13,10,15.80
2017,07,13,13,11,15.90
2017,07,13,13,12,15.90
2017,07,13,13,13,16.00
2017,07,13,13,14,16.10
2017,07,13,13,15,16.10
2017,07,13,13,16,16.10
2017,07,13,13,17,16.10
2017,07,13,13,18,16.10
2017,07,13,13,19,16.10
2017,07,13,13,20,16.20
2017,07,13,13,21,16.20
2017,07,13,13,22,16.20
2017,07,13,13,23,16.30
2017,07,13,13,24,16.40
2017,07,13,13,25,16.40
2017,07,13,13,26,16.40
2017,07,13,13,27,16.40
2017,07,13,13,28,16.40
2017,07,13,13,29,16.40
2017,07,13,13,30,16.50
2017,07,13,13,31,16.50
2017,07,13,13,32,16.60
2017,07,13,13,33,16.50
2017,07,13,13,34,16.40
2017,07,13,13,35,16.40
2017,07,13,13,36,16.40
2017,07,13,13,37,16.40
2017,07,13,13,38,16.50
2017,07,13,13,39,16.60
2017,07,13,13,40,16.70
2017,07,13,13,41,16.80
2017,07,13,13,42,16.90
2017,07,13,13,43,17.00
2017,07,13,13,44,17.10
2017,07,13,13,45,17.10
2017,07,13,13,46,17.10
2017,07,13,13,47,17.10
2017,07,13,13,48,17.00
2017,07,13,13,49,17.00
2017,07,13,13,50,17.00
2017,07,13,13,51,17.00
2017,07,13,13,52,16.90
2017,07,13,13,53,16.90
2017,07,13,13,54,16.90
2017,07,13,13,55,16.90
2017,07,13,13,56,16.90
2017,07,13,13,57,16.90
2017,07,13,13,58,16.80
2017,07,13,13,59,16.80
2017,07,13,14,00,16.80
2017,07,13,14,01,16.80
2017,07,13,14,02,16.80
2017,07,13,14,03,16.80
2017,07,13,14,04,16.70
2017,07,13,14,05,16.70
2017,07,13,14,06,16.60
2017,07,13,14,07,16.60
2017,07,13,14,08,16.60
2017,07,13,14,09,16.50
2017,07,13,14,10,16.50
2017,07,13,14,11,16.40
2017,07,13,14,12,16.40
2017,07,13,14,13,16.30
2017,07,13,14,14,16.30
2017,07,13,14,15,16.20
2017,07,13,14,16,16.20
2017,07,13,14,17,16.10
2017,07,13,14,18,16.10
2017,07,13,14,19,16.00
2017,07,13,14,20,15.90
2017,07,13,14,21,15.90
2017,07,13,14,22,15.90
2017,07,13,14,23,15.90
2017,07,13,14,24,15.90
2017,07,13,14,25,16.00
2017,07,13,14,26,16.00
2017,07,13,14,27,15.90
2017,07,13,14,28,15.90
2017,07,13,14,29,15.90
2017,07,13,14,30,15.80
2017,07,13,14,31,15.80
2017,07,13,14,32,15.80
2017,07,13,14,33,15.90
2017,07,13,14,34,15.90
2017,07,13,14,35,15.90
2017,07,13,14,36,16.00
2017,07,13,14,37,16.00
2017,07,13,14,38,16.10
2017,07,13,14,39,16.00
2017,07,13,14,40,16.10
2017,07,13,14,41,16.10
2017,07,13,14,42,16.10
2017,07,13,14,43,16.10
2017,07,13,14,44,16.00
2017,07,13,14,45,16.00
2017,07,13,14,46,16.00
2017,07,13,14,47,16.10
2017,07,13,14,48,16.10
2017,07,13,14,49,16.20
2017,07,13,14,50,16.30
2017,07,13,14,51,16.30
2017,07,13,14,52,16.30
2017,07,13,14,53,16.30
2017,07,13,14,54,16.40
2017,07,13,14,55,16.40
2017,07,13,14,56,16.40
2017,07,13,14,57,16.40
2017,07,13,14,58,16.30
2017,07,13,14,59,16.30
2017,07,13,15,00,16.30
2017,07,13,15,01,16.30
2017,07,13,15,02,16.30
2017,07,13,15,03,16.20
2017,07,13,15,04,16.10
2017,07,13,15,05,16.10
2017,07,13,15,06,16.00
2017,07,13,15,07,16.00
2017,07,13,15,08,16.00
2017,07,13,15,09,16.10
2017,07,13,15,10,16.10
2017,07,13,15,11,16.10
2017,07,13,15,12,16.00
2017,07,13,15,13,16.10
2017,07,13,15,14,16.10
2017,07,13,15,15,16.10
2017,07,13,15,16,16.20
2017,07,13,15,17,16.10
2017,07,13,15,18,16.10
2017,07,13,15,19,16.10
2017,07,13,15,20,16.10
2017,07,13,15,21,16.20
2017,07,13,15,22,16.20
2017,07,13,15,23,16.30
2017,07,13,15,24,16.30
2017,07,13,15,25,16.40
2017,07,13,15,26,16.50
2017,07,13,15,27,16.50
2017,07,13,15,28,16.50
2017,07,13,15,29,16.50
2017,07,13,15,30,16.40
2017,07,13,15,31,16.40
2017,07,13,15,32,16.40
2017,07,13,15,33,16.50
2017,07,13,15,34,16.50
2017,07,13,15,35,16.50
2017,07,13,15,36,16.60
2017,07,13,15,37,16.60
2017,07,13,15,38,16.60
2017,07,13,15,39,16.60
2017,07,13,15,40,16.60
2017,07,13,15,41,16.60
2017,07,13,15,42,16.70
2017,07,13,15,43,16.70
2017,07,13,15,44,16.70
2017,07,13,15,45,16.70
2017,07,13,15,46,16.70
2017,07,13,15,47,16.80
2017,07,13,15,48,16.80
2017,07,13,15,49,16.90
2017,07,13,15,50,16.90
2017,07,13,15,51,17.00
2017,07,13,15,52,17.00
2017,07,13,15,53,17.00
2017,07,13,15,54,17.10
2017,07,13,15,55,17.00
2017,07,13,15,56,17.00
2017,07,13,15,57,16.90
2017,07,13,15,58,16.90
2017,07,13,15,59,16.90
2017,07,13,16,00,16.90
2017,07,13,16,01,16.90
2017,07,13,16,02,16.90
2017,07,13,16,03,16.90
2017,07,13,16,04,16.80
2017,07,13,16,05,16.80
2017,07,13,16,06,16.70
2017,07,13,16,07,16.60
2017,07,13,16,08,16.50
2017,07,13,16,09,16.50
2017,07,13,16,10,16.50
2017,07,13,16,11,16.50
2017,07,13,16,12,16.40
2017,07,13,16,13,16.40
2017,07,13,16,14,16.40
2017,07,13,16,15,16.40
2017,07,13,16,16,16.40
2017,07,13,16,17,16.40
2017,07,13,16,18,16.50
2017,07,13,16,19,16.50
2017,07,13,16,20,16.50
2017,07,13,16,21,16.50
2017,07,13,16,22,16.40
2017,07,13,16,23,16.40
2017,07,13,16,24,16.40
2017,07,13,16,25,16.40
2017,07,13,16,26,16.40
2017,07,13,16,27,16.40
2017,07,13,16,28,16.30
2017,07,13,16,29,16.30
2017,07,13,16,30,16.20
2017,07,13,16,31,16.20
2017,07,13,16,32,16.20
2017,07,13,16,33,16.20
2017,07,13,16,34,16.20
2017,07,13,16,35,16.20
2017,07,13,16,36,16.20
2017,07,13,16,37,16.30
2017,07,13,16,38,16.20
2017,07,13,16,39,16.20
2017,07,13,16,40,16.30
2017,07,13,16,41,16.30
2017,07,13,16,42,16.30
2017,07,13,16,43,16.40
2017,07,13,16,44,16.50
2017,07,13,16,45,16.50
2017,07,13,16,46,16.50
2017,07,13,16,47,16.50
2017,07,13,16,48,16.50
2017,07,13,16,49,16.60
2017,07,13,16,50,16.60
2017,07,13,16,51,16.70
2017,07,13,16,52,16.70
2017,07,13,16,53,16.60
2017,07,13,16,54,16.60
2017,07,13,16,55,16.60
2017,07,13,16,56,16.60
2017,07,13,16,57,16.70
2017,07,13,16,58,16.70
2017,07,13,16,59,16.80
2017,07,13,17,00,16.80
2017,07,13,17,01,16.80
2017,07,13,17,02,16.80
2017,07,13,17,03,16.80
2017,07,13,17,04,16.80
2017,07,13,17,05,16.80
2017,07,13,17,06,16.80
2017,07,13,17,07,16.80
2017,07,13,17,08,16.80
2017,07,13,17,09,16.70
2017,07,13,17,10,16.70
2017,07,13,17,11,16.70
2017,07,13,17,12,16.70
2017,07,13,17,13,16.80
2017,07,13,17,14,16.90
2017,07,13,17,15,16.90
2017,07,13,17,16,16.80
2017,07,13,17,17,16.80
2017,07,13,17,18,16.80
2017,07,13,17,19,16.80
2017,07,13,17,20,16.90
2017,07,13,17,21,16.90
2017,07,13,17,22,16.90
2017,07,13,17,23,16.90
2017,07,13,17,24,16.90
2017,07,13,17,25,16.90
2017,07,13,17,26,16.80
2017,07,13,17,27,16.70
2017,07,13,17,28,16.60
2017,07,13,17,29,16.60
2017,07,13,17,30,16.60
2017,07,13,17,31,16.70
2017,07,13,17,32,16.70
2017,07,13,17,33,16.80
2017,07,13,17,34,16.80
2017,07,13,17,35,17.00
2017,07,13,17,36,17.00
2017,07,13,17,37,17.10
2017,07,13,17,38,17.10
2017,07,13,17,39,17.20
2017,07,13,17,40,17.20
2017,07,13,17,41,17.20
2017,07,13,17,42,17.20
2017,07,13,17,43,17.10
2017,07,13,17,44,17.10
2017,07,13,17,45,17.00
2017,07,13,17,46,16.90
2017,07,13,17,47,16.80
2017,07,13,17,48,16.80
2017,07,13,17,49,16.70
2017,07,13,17,50,16.80
2017,07,13,17,51,16.80
2017,07,13,17,52,16.80
2017,07,13,17,53,16.90
2017,07,13,17,54,16.90
2017,07,13,17,55,16.90
2017,07,13,17,56,16.90
2017,07,13,17,57,16.90
2017,07,13,17,58,16.90
2017,07,13,17,59,16.80
2017,07,13,18,00,16.80
2017,07,13,18,01,16.70
2017,07,13,18,02,16.70
2017,07,13,18,03,16.60
2017,07,13,18,04,16.50
2017,07,13,18,05,16.50
2017,07,13,18,06,16.50
2017,07,13,18,07,16.50
2017,07,13,18,08,16.50
2017,07,13,18,09,16.40
2017,07,13,18,10,16.40
2017,07,13,18,11,16.40
2017,07,13,18,12,16.40
2017,07,13,18,13,16.50
2017,07,13,18,14,16.50
2017,07,13,18,15,16.50
2017,07,13,18,16,16.40
2017,07,13,18,17,16.40
2017,07,13,18,18,16.30
2017,07,13,18,19,16.30
2017,07,13,18,20,16.30
2017,07,13,18,21,16.40
2017,07,13,18,22,16.50
2017,07,13,18,23,16.50
2017,07,13,18,24,16.50
2017,07,13,18,25,16.50
2017,07,13,18,26,16.50
2017,07,13,18,27,16.50
2017,07,13,18,28,16.60
2017,07,13,18,29,16.50
2017,07,13,18,30,16.50
2017,07,13,18,31,16.40
2017,07,13,18,32,16.30
2017,07,13,18,33,16.20
2017,07,13,18,34,16.20
2017,07,13,18,35,16.20
2017,07,13,18,36,16.20
2017,07,13,18,37,16.10
2017,07,13,18,38,16.10
2017,07,13,18,39,16.10
2017,07,13,18,40,16.10
2017,07,13,18,41,16.10
2017,07,13,18,42,16.10
2017,07,13,18,43,16.10
2017,07,13,18,44,16.10
2017,07,13,18,45,16.10
2017,07,13,18,46,16.20
2017,07,13,18,47,16.20
2017,07,13,18,48,16.20
2017,07,13,18,49,16.20
2017,07,13,18,50,16.20
2017,07,13,18,51,16.20
2017,07,13,18,52,16.10
2017,07,13,18,53,16.10
2017,07,13,18,54,16.10
2017,07,13,18,55,16.10
2017,07,13,18,56,16.20
2017,07,13,18,57,16.20
2017,07,13,18,58,16.20
2017,07,13,18,59,16.20
2017,07,13,19,00,16.20
2017,07,13,19,01,16.30
2017,07,13,19,02,16.30
2017,07,13,19,03,16.30
2017,07,13,19,04,16.40
2017,07,13,19,05,16.30
2017,07,13,19,06,16.30
2017,07,13,19,07,16.20
2017,07,13,19,08,16.20
2017,07,13,19,09,16.20
2017,07,13,19,10,16.20
2017,07,13,19,11,16.20
2017,07,13,19,12,16.20
2017,07,13,19,13,16.20
2017,07,13,19,14,16.20
2017,07,13,19,15,16.20
2017,07,13,19,16,16.10
2017,07,13,19,17,16.10
2017,07,13,19,18,16.10
2017,07,13,19,19,16.10
2017,07,13,19,20,16.10
2017,07,13,19,21,16.20
2017,07,13,19,22,16.20
2017,07,13,19,23,16.10
2017,07,13,19,24,16.10
2017,07,13,19,25,16.00
2017,07,13,19,26,16.00
2017,07,13,19,27,16.00
2017,07,13,19,28,16.00
2017,07,13,19,29,16.10
2017,07,13,19,30,16.10
2017,07,13,19,31,16.20
2017,07,13,19,32,16.20
2017,07,13,19,33,16.20
2017,07,13,19,34,16.30
2017,07,13,19,35,16.30
2017,07,13,19,36,16.30
2017,07,13,19,37,16.30
2017,07,13,19,38,16.30
2017,07,13,19,39,16.30
2017,07,13,19,40,16.20
2017,07,13,19,41,16.20
2017,07,13,19,42,16.20
2017,07,13,19,43,16.20
2017,07,13,19,44,16.20
2017,07,13,19,45,16.20
2017,07,13,19,46,16.20
2017,07,13,19,47,16.10
2017,07,13,19,48,16.10
2017,07,13,19,49,16.10
2017,07,13,19,50,16.10
2017,07,13,19,51,16.10
2017,07,13,19,52,16.00
2017,07,13,19,53,16.00
2017,07,13,19,54,16.00
2017,07,13,19,55,15.90
2017,07,13,19,56,15.80
2017,07,13,19,57,15.80
2017,07,13,19,58,15.90
2017,07,13,19,59,15.90
2017,07,13,20,00,15.90
2017,07,13,20,01,15.90
2017,07,13,20,02,15.90
2017,07,13,20,03,16.00
2017,07,13,20,04,16.00
2017,07,13,20,05,16.10
2017,07,13,20,06,16.10
2017,07,13,20,07,16.10
2017,07,13,20,08,16.10
2017,07,13,20,09,16.10
2017,07,13,20,10,16.10
2017,07,13,20,11,16.10
2017,07,13,20,12,16.10
2017,07,13,20,13,16.10
2017,07,13,20,14,16.10
2017,07,13,20,15,16.00
2017,07,13,20,16,16.00
2017,07,13,20,17,15.90
2017,07,13,20,18,15.90
2017,07,13,20,19,15.90
2017,07,13,20,20,15.80
2017,07,13,20,21,15.80
2017,07,13,20,22,15.80
2017,07,13,20,23,15.80
2017,07,13,20,24,15.80
2017,07,13,20,25,15.80
2017,07,13,20,26,15.70
2017,07,13,20,27,15.70
2017,07,13,20,28,15.70
2017,07,13,20,29,15.70
2017,07,13,20,30,15.70
2017,07,13,20,31,15.70
2017,07,13,20,32,15.60
2017,07,13,20,33,15.60
2017,07,13,20,34,15.60
2017,07,13,20,35,15.60
2017,07,13,20,36,15.50
2017,07,13,20,37,15.50
2017,07,13,20,38,15.50
2017,07,13,20,39,15.40
2017,07,13,20,40,15.40
2017,07,13,20,41,15.40
2017,07,13,20,42,15.30
2017,07,13,20,43,15.30
2017,07,13,20,44,15.30
2017,07,13,20,45,15.20
2017,07,13,20,46,15.20
2017,07,13,20,47,15.20
2017,07,13,20,48,15.10
2017,07,13,20,49,15.10
2017,07,13,20,50,15.10
2017,07,13,20,51,15.10
2017,07,13,20,52,15.10
2017,07,13,20,53,15.00
2017,07,13,20,54,15.00
2017,07,13,20,55,14.90
2017,07,13,20,56,14.90
2017,07,13,20,57,14.90
2017,07,13,20,58,14.90
2017,07,13,20,59,14.80
2017,07,13,21,00,14.80
2017,07,13,21,01,14.80
2017,07,13,21,02,14.70
2017,07,13,21,03,14.70
2017,07,13,21,04,14.70
2017,07,13,21,05,14.60
2017,07,13,21,06,14.60
2017,07,13,21,07,14.60
2017,07,13,21,08,14.50
2017,07,13,21,09,14.50
2017,07,13,21,10,14.50
2017,07,13,21,11,14.50
2017,07,13,21,12,14.50
2017,07,13,21,13,14.50
2017,07,13,21,14,14.50
2017,07,13,21,15,14.50
2017,07,13,21,16,14.50
2017,07,13,21,17,14.50
2017,07,13,21,18,14.50
